STARLINK-30510, 57981

Orbit data source: Space-Track

STARLINK-30510, 57981 is a payload satellite owned by SpaceX/Seattle (US) in LEO that was launched on Sat, 30 Sep 2023 UTC via an FALCON 9 launch vehicle from the Air Force Eastern Test Range (AFETR). Payload-class satellites include a variety of spacecraft equipped with specific instruments for various scientific and technological missions. These include communications satellites like Starlink; space stations such as the ISS; scientific satellites like the Hubble; Earth observation satellites from companies like Planet Labs, Umbra, and HawkEye 360; GPS; miniature CubeSats for education and research; and military/defense satellites.

Loading next visibility...
Identifier
57981, 2023-151T
Orbit
LEO
Country
Flag of USUS
Related business
Manufacturer
SpaceX/Seattle
Mission
Operational Commercial Communications
Bus & Motor
STARLINK V2M, Unknown motor
Mass
730 kg wet, ~700 kg dry
Launch date (UTC)
2023-09-30 (3 years ago)
Launch vehicle
FALCON 9
Launch site
Air Force Eastern Test Range (AFETR)
Object type
Payload
Rocket body
Debris
Shape & HBR
Box + 2 Pan, 17.7 m
Radar Cross Section
33.884 m², Large (>1 m²)

Expand to show TLE details & history
Last TLE update: 13 hours ago

TLE from 13 hours ago
0 STARLINK-30510
1 57981U 23151T   26129.94527904  .00000850  00000-0  40449-4 0  9990
2 57981  43.0016   7.9750 0001275 262.9080  97.1626 15.27559521144929
Epoch: 2026-05-09T22:41Z
TLE epoch observation values (Epoch: 2026-05-09T22:41:12.109Z)
Latitude
-0.00005°
Longitude
159.91906°
Altitude
482.995 km
Speed
7.626 km/s
True Right ascension
00h 31m 53s
True Declination
0° 00' 00"
Sunlit
Object was in daylight at epoch
Visualization orbit readout
Latitude
Unknown
Longitude
Unknown
Altitude
Unknown
Speed
Unknown
Apparent Right ascension
Unknown
Apparent Declination
Unknown
Sunlit
N/A
Visualization observer readout
Local Sidereal Time
19:51:38
Azimuth
Unknown
Elevation
Unknown
Doppler factor
Unknown
Orbital elements
Apogee altitude
485.93 km
Perigee altitude
484.18 km
Semi-major axis
6,863.192 km
Eccentricity
0.00013
Inclination
43.0016°
RAAN
7.975°
Arg. of periapsis
262.908°
True anomaly
97.1771°
Mean anomaly
97.1626°
Eccentric anomaly
97.16985°
Mean motion
3.81728 °/min
Orbital period
94.31 mins
BSTAR
0.000040449
Loading maneuver chart data...
Computing Atmospheric mass density...
Loading historical data...
Loading historical data...
Loading historical data...
Loading historical data...
Loading historical data...
Loading historical data...
Loading historical data...

Documentation

Showing up to 5 results
|